Time,TemperatureF,DewpointF,PressureIn,WindDirection,WindDirectionDegrees,WindSpeedMPH,WindSpeedGustMPH,Humidity,HourlyPrecipIn,Conditions,Clouds,dailyrainin,SoftwareType,DateUTC
2013-05-19 00:01:00,75.7,74.5,29.87,ESE,104,13.8,13.8,96,0.00,CLR,,0.00,WeatherDisplay:10.37,2013-05-19 05:01:00,
2013-05-19 00:06:00,75.7,74.8,29.86,SE,138,11.5,11.5,97,0.00,CLR,,0.00,WeatherDisplay:10.37,2013-05-19 05:06:00,
2013-05-19 00:11:00,75.6,74.7,29.86,ESE,117,12.7,12.7,97,0.00,CLR,,0.00,WeatherDisplay:10.37,2013-05-19 05:11:00,
2013-05-19 00:16:00,75.6,74.7,29.86,ESE,123,12.7,12.7,97,0.00,CLR,,0.00,WeatherDisplay:10.37,2013-05-19 05:16:00,
2013-05-19 00:21:00,75.6,74.7,29.86,SE,134,16.1,16.1,97,0.00,CLR,,0.00,WeatherDisplay:10.37,2013-05-19 05:21:00,
2013-05-19 00:26:00,75.6,74.7,29.86,SE,143,10.4,10.4,97,0.00,CLR,,0.00,WeatherDisplay:10.37,2013-05-19 05:26:00,
2013-05-19 00:31:00,75.6,74.7,29.86,SE,142,11.5,11.5,97,0.00,CLR,,0.00,WeatherDisplay:10.37,2013-05-19 05:31:00,
2013-05-19 00:36:00,75.6,74.7,29.86,SE,139,16.1,16.1,97,0.00,CLR,,0.00,WeatherDisplay:10.37,2013-05-19 05:36:00,
2013-05-19 00:41:00,75.6,74.7,29.85,SE,146,17.3,17.3,97,0.00,CLR,,0.00,WeatherDisplay:10.37,2013-05-19 05:41:00,
2013-05-19 00:46:00,75.6,74.7,29.85,East,98,15.0,15.0,97,0.00,CLR,,0.00,WeatherDisplay:10.37,2013-05-19 05:46:00,
2013-05-19 00:51:00,75.6,74.7,29.85,South,175,17.3,17.3,97,0.00,CLR,,0.00,WeatherDisplay:10.37,2013-05-19 05:51:00,
2013-05-19 00:56:00,75.6,74.7,29.85,SE,133,15.8,15.8,97,0.00,CLR,,0.00,WeatherDisplay:10.37,2013-05-19 05:56:00,
2013-05-19 01:01:00,75.6,74.7,29.84,ESE,122,15.0,15.0,97,0.00,CLR,,0.00,WeatherDisplay:10.37,2013-05-19 06:01:00,
2013-05-19 01:06:00,75.6,74.7,29.84,SE,129,16.1,16.1,97,0.00,CLR,,0.00,WeatherDisplay:10.37,2013-05-19 06:06:00,
2013-05-19 01:11:00,75.6,74.4,29.83,SE,144,11.5,11.5,96,0.00,CLR,,0.00,WeatherDisplay:10.37,2013-05-19 06:11:00,
2013-05-19 01:16:00,75.6,74.4,29.83,SSE,152,19.6,19.6,96,0.00,CLR,,0.00,WeatherDisplay:10.37,2013-05-19 06:16:00,
2013-05-19 01:21:00,75.6,74.4,29.83,SE,145,18.4,18.4,96,0.00,CLR,,0.00,WeatherDisplay:10.37,2013-05-19 06:21:00,
2013-05-19 01:26:00,75.6,74.4,29.83,SE,141,20.7,20.7,96,0.00,CLR,,0.00,WeatherDisplay:10.37,2013-05-19 06:26:00,
2013-05-19 01:31:00,75.6,74.4,29.83,ENE,77,15.8,15.8,96,0.00,CLR,,0.00,WeatherDisplay:10.37,2013-05-19 06:31:00,
2013-05-19 01:36:00,75.7,74.5,29.83,ESE,108,15.0,15.0,96,0.00,CLR,,0.00,WeatherDisplay:10.37,2013-05-19 06:36:00,
2013-05-19 01:41:00,75.7,74.5,29.82,SSE,147,16.1,16.1,96,0.00,CLR,,0.00,WeatherDisplay:10.37,2013-05-19 06:41:00,
2013-05-19 01:46:00,75.7,74.5,29.82,ESE,122,17.3,17.3,96,0.00,CLR,,0.00,WeatherDisplay:10.37,2013-05-19 06:46:00,
2013-05-19 01:51:00,75.7,74.5,29.82,SE,132,13.8,13.8,96,0.00,CLR,,0.00,WeatherDisplay:10.37,2013-05-19 06:51:00,
2013-05-19 01:56:00,75.8,74.6,29.82,SE,127,18.4,18.4,96,0.00,CLR,,0.00,WeatherDisplay:10.37,2013-05-19 06:56:00,
2013-05-19 02:01:00,75.8,74.6,29.82,South,176,13.8,13.8,96,0.00,CLR,,0.00,WeatherDisplay:10.37,2013-05-19 07:01:00,
2013-05-19 02:06:00,75.9,74.7,29.82,SE,140,18.4,18.4,96,0.00,CLR,,0.00,WeatherDisplay:10.37,2013-05-19 07:06:00,
2013-05-19 02:11:00,75.9,74.7,29.82,SE,139,13.8,13.8,96,0.00,CLR,,0.00,WeatherDisplay:10.37,2013-05-19 07:11:00,
2013-05-19 02:16:00,75.9,74.7,29.82,SE,132,15.0,15.0,96,0.00,CLR,,0.00,WeatherDisplay:10.37,2013-05-19 07:16:00,
2013-05-19 02:21:00,75.9,74.7,29.82,SE,128,12.7,12.7,96,0.00,CLR,,0.00,WeatherDisplay:10.37,2013-05-19 07:21:00,
2013-05-19 02:26:00,75.8,74.9,29.81,SE,134,16.1,16.1,97,0.00,CLR,,0.00,WeatherDisplay:10.37,2013-05-19 07:26:00,
2013-05-19 02:31:00,75.8,74.9,29.82,SE,129,18.4,18.4,97,0.00,CLR,,0.00,WeatherDisplay:10.37,2013-05-19 07:31:00,
2013-05-19 02:36:00,75.7,74.8,29.82,East,96,10.4,10.4,97,0.00,CLR,,0.00,WeatherDisplay:10.37,2013-05-19 07:36:00,
2013-05-19 02:41:00,75.7,74.8,29.82,SE,132,15.0,15.0,97,0.00,CLR,,0.00,WeatherDisplay:10.37,2013-05-19 07:41:00,
2013-05-19 02:46:00,75.7,74.8,29.82,SE,132,15.0,15.0,97,0.00,CLR,,0.00,WeatherDisplay:10.37,2013-05-19 07:46:00,
2013-05-19 02:51:00,75.7,74.8,29.81,ESE,120,18.4,18.4,97,0.00,CLR,,0.00,WeatherDisplay:10.37,2013-05-19 07:51:00,
2013-05-19 02:56:00,75.7,74.8,29.81,SE,132,10.4,10.4,97,0.00,CLR,,0.00,WeatherDisplay:10.37,2013-05-19 07:56:00,
2013-05-19 03:01:00,75.7,74.8,29.81,SE,129,16.1,16.1,97,0.00,CLR,,0.00,WeatherDisplay:10.37,2013-05-19 08:01:00,
2013-05-19 03:06:00,75.7,74.8,29.82,SE,146,11.5,11.5,97,0.00,CLR,,0.00,WeatherDisplay:10.37,2013-05-19 08:06:00,
2013-05-19 03:11:00,75.8,74.9,29.81,SE,127,12.7,12.7,97,0.00,CLR,,0.00,WeatherDisplay:10.37,2013-05-19 08:11:00,
2013-05-19 03:16:00,75.9,75.0,29.82,SE,146,9.2,9.2,97,0.00,CLR,,0.00,WeatherDisplay:10.37,2013-05-19 08:16:00,
2013-05-19 03:21:00,75.9,74.7,29.82,ESE,118,9.2,9.2,96,0.00,CLR,,0.00,WeatherDisplay:10.37,2013-05-19 08:21:00,
2013-05-19 03:26:00,76.0,74.8,29.81,SE,146,10.4,10.4,96,0.00,CLR,,0.00,WeatherDisplay:10.37,2013-05-19 08:26:00,
2013-05-19 03:31:00,76.1,74.9,29.81,SSE,159,18.4,18.4,96,0.00,CLR,,0.00,WeatherDisplay:10.37,2013-05-19 08:31:00,
2013-05-19 03:36:00,76.1,74.9,29.81,SE,126,15.0,15.0,96,0.00,CLR,,0.00,WeatherDisplay:10.37,2013-05-19 08:36:00,
2013-05-19 03:41:00,76.1,74.9,29.81,SE,124,9.4,9.4,96,0.00,CLR,,0.00,WeatherDisplay:10.37,2013-05-19 08:41:00,
2013-05-19 03:46:00,76.1,74.9,29.81,SE,146,20.7,20.7,96,0.00,CLR,,0.00,WeatherDisplay:10.37,2013-05-19 08:46:00,
2013-05-19 03:51:00,76.2,74.7,29.81,SE,131,15.0,15.0,95,0.00,CLR,,0.00,WeatherDisplay:10.37,2013-05-19 08:51:00,
2013-05-19 03:56:00,76.2,74.7,29.81,South,186,11.5,11.5,95,0.00,CLR,,0.00,WeatherDisplay:10.37,2013-05-19 08:56:00,
2013-05-19 04:01:00,76.2,74.7,29.80,SSE,156,13.8,13.8,95,0.00,CLR,,0.00,WeatherDisplay:10.37,2013-05-19 09:01:00,
2013-05-19 04:06:00,76.2,74.7,29.80,SE,140,12.7,12.7,95,0.00,CLR,,0.00,WeatherDisplay:10.37,2013-05-19 09:06:00,
2013-05-19 04:11:00,76.2,74.7,29.80,SSE,164,6.9,6.9,95,0.00,CLR,,0.00,WeatherDisplay:10.37,2013-05-19 09:11:00,
2013-05-19 04:16:00,76.2,75.0,29.81,SE,140,11.6,11.6,96,0.00,CLR,,0.00,WeatherDisplay:10.37,2013-05-19 09:16:00,
2013-05-19 04:21:00,76.1,74.9,29.80,SSE,157,17.3,17.3,96,0.00,CLR,,0.00,WeatherDisplay:10.37,2013-05-19 09:21:00,
2013-05-19 04:26:00,76.1,74.9,29.80,SSE,149,13.8,13.8,96,0.00,CLR,,0.00,WeatherDisplay:10.37,2013-05-19 09:26:00,
2013-05-19 04:31:00,76.2,75.0,29.80,SSE,158,15.0,15.0,96,0.00,CLR,,0.00,WeatherDisplay:10.37,2013-05-19 09:31:00,
2013-05-19 04:36:00,76.2,75.0,29.80,SSE,149,12.7,12.7,96,0.00,CLR,,0.00,WeatherDisplay:10.37,2013-05-19 09:36:00,
2013-05-19 04:41:00,76.2,75.0,29.80,SSE,168,13.8,13.8,96,0.00,CLR,,0.00,WeatherDisplay:10.37,2013-05-19 09:41:00,
2013-05-19 04:46:00,76.2,75.0,29.81,SSE,152,13.8,13.8,96,0.00,CLR,,0.00,WeatherDisplay:10.37,2013-05-19 09:46:00,
2013-05-19 04:51:00,76.2,75.0,29.80,South,191,10.4,10.4,96,0.00,CLR,,0.00,WeatherDisplay:10.37,2013-05-19 09:51:00,
2013-05-19 04:56:00,76.2,75.0,29.80,South,176,13.8,13.8,96,0.00,CLR,,0.00,WeatherDisplay:10.37,2013-05-19 09:56:00,
2013-05-19 05:01:00,76.1,74.9,29.80,SSE,150,18.4,18.4,96,0.00,CLR,,0.00,WeatherDisplay:10.37,2013-05-19 10:01:00,
2013-05-19 05:06:00,76.1,74.9,29.80,SE,143,10.4,10.4,96,0.00,CLR,,0.00,WeatherDisplay:10.37,2013-05-19 10:06:00,
2013-05-19 05:11:00,76.1,74.9,29.80,SE,127,10.4,10.4,96,0.00,CLR,,0.00,WeatherDisplay:10.37,2013-05-19 10:11:00,
2013-05-19 05:16:00,76.0,75.1,29.80,SE,126,16.1,16.1,97,0.00,CLR,,0.00,WeatherDisplay:10.37,2013-05-19 10:16:00,
2013-05-19 05:21:00,76.0,75.1,29.80,SSE,162,11.5,11.5,97,0.00,CLR,,0.00,WeatherDisplay:10.37,2013-05-19 10:21:00,
2013-05-19 05:26:00,76.0,75.1,29.79,SE,124,5.8,5.8,97,0.00,CLR,,0.00,WeatherDisplay:10.37,2013-05-19 10:26:00,
2013-05-19 05:31:00,76.0,75.1,29.79,ESE,121,13.8,13.8,97,0.00,CLR,,0.00,WeatherDisplay:10.37,2013-05-19 10:31:00,
2013-05-19 05:36:00,76.0,75.1,29.80,SE,129,11.5,11.5,97,0.00,CLR,,0.00,WeatherDisplay:10.37,2013-05-19 10:36:00,
2013-05-19 05:41:00,76.0,75.1,29.80,ESE,115,6.3,6.3,97,0.00,CLR,,0.00,WeatherDisplay:10.37,2013-05-19 10:41:00,
2013-05-19 05:46:00,76.1,75.2,29.80,SE,146,9.2,9.2,97,0.00,CLR,,0.00,WeatherDisplay:10.37,2013-05-19 10:46:00,
2013-05-19 05:51:00,76.0,75.1,29.80,ESE,118,15.0,15.0,97,0.00,CLR,,0.00,WeatherDisplay:10.37,2013-05-19 10:51:00,
2013-05-19 05:56:00,76.0,75.1,29.80,South,179,15.0,15.0,97,0.00,CLR,,0.00,WeatherDisplay:10.37,2013-05-19 10:56:00,
2013-05-19 06:01:00,76.0,75.1,29.80,SSE,159,9.2,9.2,97,0.00,CLR,,0.00,WeatherDisplay:10.37,2013-05-19 11:01:00,
2013-05-19 06:06:00,76.0,75.1,29.80,SE,136,9.2,9.2,97,0.00,CLR,,0.00,WeatherDisplay:10.37,2013-05-19 11:06:00,
2013-05-19 06:11:00,76.0,75.1,29.81,ESE,122,11.5,11.5,97,0.00,CLR,,0.00,WeatherDisplay:10.37,2013-05-19 11:11:00,
2013-05-19 06:16:00,76.0,75.1,29.80,SE,143,13.8,13.8,97,0.00,CLR,,0.00,WeatherDisplay:10.37,2013-05-19 11:16:00,
2013-05-19 06:21:00,76.0,75.1,29.80,SE,127,12.7,12.7,97,0.00,CLR,,0.00,WeatherDisplay:10.37,2013-05-19 11:21:00,
2013-05-19 06:26:00,76.0,75.1,29.80,SSE,149,6.9,6.9,97,0.00,CLR,,0.00,WeatherDisplay:10.37,2013-05-19 11:26:00,
2013-05-19 06:31:00,76.0,75.1,29.81,SE,139,15.0,15.0,97,0.00,CLR,,0.00,WeatherDisplay:10.37,2013-05-19 11:31:00,
2013-05-19 06:36:00,76.1,74.9,29.80,SE,137,17.3,17.3,96,0.00,CLR,,0.00,WeatherDisplay:10.37,2013-05-19 11:36:00,
2013-05-19 06:41:00,76.1,74.9,29.80,SE,132,10.4,10.4,96,0.00,CLR,,0.00,WeatherDisplay:10.37,2013-05-19 11:41:00,
2013-05-19 06:46:00,76.1,74.9,29.81,SE,136,17.3,17.3,96,0.00,CLR,,0.00,WeatherDisplay:10.37,2013-05-19 11:46:00,
2013-05-19 06:51:00,76.1,74.9,29.81,South,173,15.0,15.0,96,0.00,CLR,,0.00,WeatherDisplay:10.37,2013-05-19 11:51:00,
2013-05-19 06:56:00,76.1,74.9,29.82,ESE,113,10.4,10.4,96,0.00,CLR,,0.00,WeatherDisplay:10.37,2013-05-19 11:56:00,
2013-05-19 07:01:00,76.2,75.0,29.82,ESE,111,12.7,12.7,96,0.00,CLR,,0.00,WeatherDisplay:10.37,2013-05-19 12:01:00,
2013-05-19 07:06:00,76.2,75.0,29.82,SE,126,9.2,9.2,96,0.00,CLR,,0.00,WeatherDisplay:10.37,2013-05-19 12:06:00,
2013-05-19 07:11:00,76.1,74.9,29.82,ESE,122,12.7,12.7,96,0.00,CLR,,0.00,WeatherDisplay:10.37,2013-05-19 12:11:00,
2013-05-19 07:16:00,76.1,74.9,29.82,SE,140,12.7,12.7,96,0.00,CLR,,0.00,WeatherDisplay:10.37,2013-05-19 12:16:00,
2013-05-19 07:21:00,76.1,74.9,29.82,SE,129,12.7,12.7,96,0.00,CLR,,0.00,WeatherDisplay:10.37,2013-05-19 12:21:00,
2013-05-19 07:26:00,76.0,75.1,29.81,SE,134,17.3,17.3,97,0.00,CLR,,0.00,WeatherDisplay:10.37,2013-05-19 12:26:00,
2013-05-19 07:31:00,76.0,75.1,29.82,SE,146,11.5,11.5,97,0.00,CLR,,0.00,WeatherDisplay:10.37,2013-05-19 12:31:00,
2013-05-19 07:36:00,76.0,75.1,29.82,ESE,108,17.3,17.3,97,0.00,CLR,,0.00,WeatherDisplay:10.37,2013-05-19 12:36:00,
2013-05-19 07:41:00,76.0,74.8,29.82,South,184,18.4,18.4,96,0.00,CLR,,0.00,WeatherDisplay:10.37,2013-05-19 12:41:00,
2013-05-19 07:46:00,76.1,74.6,29.82,East,87,18.4,18.4,95,0.00,CLR,,0.00,WeatherDisplay:10.37,2013-05-19 12:46:00,
2013-05-19 07:51:00,76.3,74.8,29.82,ESE,113,16.1,16.1,95,0.00,CLR,,0.00,WeatherDisplay:10.37,2013-05-19 12:51:00,
2013-05-19 07:56:00,76.4,74.9,29.82,ESE,113,15.0,15.0,95,0.00,CLR,,0.00,WeatherDisplay:10.37,2013-05-19 12:56:00,
2013-05-19 08:01:00,76.4,75.2,29.82,South,184,15.0,15.0,96,0.00,CLR,,0.00,WeatherDisplay:10.37,2013-05-19 13:01:00,
2013-05-19 08:06:00,76.4,75.2,29.83,SSE,153,12.6,12.6,96,0.00,CLR,,0.00,WeatherDisplay:10.37,2013-05-19 13:06:00,
2013-05-19 08:11:00,76.3,75.1,29.83,ESE,122,9.2,9.2,96,0.00,CLR,,0.00,WeatherDisplay:10.37,2013-05-19 13:11:00,
2013-05-19 08:16:00,76.3,75.1,29.83,SE,133,10.4,10.4,96,0.00,CLR,,0.00,WeatherDisplay:10.37,2013-05-19 13:16:00,
2013-05-19 08:21:00,76.4,75.2,29.83,SSE,163,18.4,18.4,96,0.00,CLR,,0.00,WeatherDisplay:10.37,2013-05-19 13:21:00,
2013-05-19 08:26:00,76.4,75.2,29.83,ESE,115,16.1,16.1,96,0.00,CLR,,0.00,WeatherDisplay:10.37,2013-05-19 13:26:00,
2013-05-19 08:31:00,76.5,75.3,29.83,SE,137,15.0,15.0,96,0.00,CLR,,0.00,WeatherDisplay:10.37,2013-05-19 13:31:00,
2013-05-19 08:36:00,76.6,75.1,29.83,ESE,119,18.4,18.4,95,0.00,CLR,,0.00,WeatherDisplay:10.37,2013-05-19 13:36:00,
2013-05-19 08:41:00,76.7,75.2,29.82,SE,140,17.3,17.3,95,0.00,CLR,,0.00,WeatherDisplay:10.37,2013-05-19 13:41:00,
2013-05-19 08:46:00,77.0,75.1,29.82,SE,133,16.1,16.1,94,0.00,CLR,,0.00,WeatherDisplay:10.37,2013-05-19 13:46:00,
2013-05-19 08:51:00,77.3,75.1,29.82,SE,136,16.1,16.1,93,0.00,CLR,,0.00,WeatherDisplay:10.37,2013-05-19 13:51:00,
2013-05-19 08:56:00,77.6,75.1,29.82,ESE,121,19.6,19.6,92,0.00,CLR,,0.00,WeatherDisplay:10.37,2013-05-19 13:56:00,
2013-05-19 09:01:00,77.9,75.4,29.82,SSE,151,15.0,15.0,92,0.00,CLR,,0.00,WeatherDisplay:10.37,2013-05-19 14:01:00,
2013-05-19 09:06:00,77.9,75.4,29.82,SSE,159,19.6,19.6,92,0.00,CLR,,0.00,WeatherDisplay:10.37,2013-05-19 14:06:00,
2013-05-19 09:11:00,77.8,75.3,29.82,SSE,165,19.6,19.6,92,0.00,CLR,,0.00,WeatherDisplay:10.37,2013-05-19 14:11:00,
2013-05-19 09:16:00,77.9,75.4,29.82,East,100,20.7,20.7,92,0.00,CLR,,0.00,WeatherDisplay:10.37,2013-05-19 14:16:00,
2013-05-19 09:21:00,77.8,75.3,29.82,SSW,192,17.3,17.3,92,0.00,CLR,,0.00,WeatherDisplay:10.37,2013-05-19 14:21:00,
2013-05-19 09:26:00,77.5,75.3,29.83,ESE,108,19.6,19.6,93,0.00,CLR,,0.00,WeatherDisplay:10.37,2013-05-19 14:26:00,
2013-05-19 09:31:00,77.4,75.2,29.83,SE,141,18.4,18.4,93,0.00,CLR,,0.00,WeatherDisplay:10.37,2013-05-19 14:31:00,
2013-05-19 09:36:00,77.4,75.2,29.83,SE,134,19.6,19.6,93,0.00,CLR,,0.00,WeatherDisplay:10.37,2013-05-19 14:36:00,
2013-05-19 09:41:00,77.5,75.3,29.83,SSE,155,13.8,13.8,93,0.00,CLR,,0.00,WeatherDisplay:10.37,2013-05-19 14:41:00,
2013-05-19 09:46:00,77.7,75.5,29.83,SSE,156,15.0,15.0,93,0.00,CLR,,0.00,WeatherDisplay:10.37,2013-05-19 14:46:00,
2013-05-19 09:51:00,77.8,75.3,29.83,SE,127,11.5,11.5,92,0.00,CLR,,0.00,WeatherDisplay:10.37,2013-05-19 14:51:00,
2013-05-19 09:56:00,77.5,75.0,29.83,SE,128,18.4,18.4,92,0.00,CLR,,0.00,WeatherDisplay:10.37,2013-05-19 14:56:00,
2013-05-19 10:01:00,77.6,75.1,29.83,SE,143,18.4,18.4,92,0.00,CLR,,0.00,WeatherDisplay:10.37,2013-05-19 15:01:00,
2013-05-19 10:06:00,77.7,75.2,29.83,SE,145,16.1,16.1,92,0.00,CLR,,0.00,WeatherDisplay:10.37,2013-05-19 15:06:00,
2013-05-19 10:11:00,77.7,75.2,29.83,SE,136,16.1,16.1,92,0.00,CLR,,0.00,WeatherDisplay:10.37,2013-05-19 15:11:00,
2013-05-19 10:16:00,77.8,75.3,29.83,SE,131,16.1,16.1,92,0.00,CLR,,0.00,WeatherDisplay:10.37,2013-05-19 15:16:00,
2013-05-19 10:21:00,78.0,75.5,29.83,SE,131,11.5,11.5,92,0.00,CLR,,0.00,WeatherDisplay:10.37,2013-05-19 15:21:00,
2013-05-19 10:26:00,78.3,75.5,29.83,SE,144,14.7,14.7,91,0.00,CLR,,0.00,WeatherDisplay:10.37,2013-05-19 15:26:00,
2013-05-19 10:31:00,78.2,75.4,29.83,SE,139,15.0,15.0,91,0.00,CLR,,0.00,WeatherDisplay:10.37,2013-05-19 15:31:00,
2013-05-19 10:36:00,78.3,75.5,29.83,ESE,117,18.4,18.4,91,0.00,CLR,,0.00,WeatherDisplay:10.37,2013-05-19 15:36:00,
2013-05-19 10:41:00,78.3,75.1,29.83,SE,146,17.3,17.3,90,0.00,CLR,,0.00,WeatherDisplay:10.37,2013-05-19 15:41:00,
2013-05-19 10:46:00,78.3,75.5,29.83,ESE,121,16.1,16.1,91,0.00,CLR,,0.00,WeatherDisplay:10.37,2013-05-19 15:46:00,
2013-05-19 10:51:00,78.4,75.2,29.83,ESE,111,18.4,18.4,90,0.00,CLR,,0.00,WeatherDisplay:10.37,2013-05-19 15:51:00,
2013-05-19 10:56:00,78.6,75.4,29.83,ESE,120,18.4,18.4,90,0.00,CLR,,0.00,WeatherDisplay:10.37,2013-05-19 15:56:00,
2013-05-19 11:01:00,78.6,75.1,29.83,SSE,164,15.0,15.0,89,0.00,CLR,,0.00,WeatherDisplay:10.37,2013-05-19 16:01:00,
2013-05-19 11:06:00,78.5,75.0,29.83,SE,126,20.7,20.7,89,0.00,CLR,,0.00,WeatherDisplay:10.37,2013-05-19 16:06:00,
2013-05-19 11:11:00,78.5,75.3,29.84,SE,142,16.8,16.8,90,0.00,CLR,,0.00,WeatherDisplay:10.37,2013-05-19 16:11:00,
2013-05-19 11:16:00,78.6,75.4,29.83,South,172,17.3,17.3,90,0.00,CLR,,0.00,WeatherDisplay:10.37,2013-05-19 16:16:00,
2013-05-19 11:21:00,78.9,75.4,29.83,SE,124,18.4,18.4,89,0.00,CLR,,0.00,WeatherDisplay:10.37,2013-05-19 16:21:00,
2013-05-19 11:26:00,79.1,75.9,29.83,SE,146,10.4,10.4,90,0.00,CLR,,0.00,WeatherDisplay:10.37,2013-05-19 16:26:00,
2013-05-19 11:31:00,79.2,75.7,29.83,South,174,12.7,12.7,89,0.00,CLR,,0.00,WeatherDisplay:10.37,2013-05-19 16:31:00,
2013-05-19 11:36:00,79.5,75.6,29.83,South,179,17.3,17.3,88,0.00,CLR,,0.00,WeatherDisplay:10.37,2013-05-19 16:36:00,
2013-05-19 11:41:00,79.4,75.5,29.83,SE,131,18.4,18.4,88,0.00,CLR,,0.00,WeatherDisplay:10.37,2013-05-19 16:41:00,
2013-05-19 11:46:00,79.4,75.5,29.83,SSE,150,18.4,18.4,88,0.00,CLR,,0.00,WeatherDisplay:10.37,2013-05-19 16:46:00,
2013-05-19 11:51:00,79.5,75.6,29.83,East,101,15.0,15.0,88,0.00,CLR,,0.00,WeatherDisplay:10.37,2013-05-19 16:51:00,
2013-05-19 11:56:00,79.9,76.0,29.84,ESE,120,16.1,16.1,88,0.00,CLR,,0.00,WeatherDisplay:10.37,2013-05-19 16:56:00,
2013-05-19 12:01:00,80.1,75.9,29.84,SSE,155,17.3,17.3,87,0.00,CLR,,0.00,WeatherDisplay:10.37,2013-05-19 17:01:00,
2013-05-19 12:06:00,80.2,75.6,29.84,ESE,115,15.0,15.0,86,0.00,CLR,,0.00,WeatherDisplay:10.37,2013-05-19 17:06:00,
2013-05-19 12:11:00,80.4,76.2,29.83,South,191,12.7,12.7,87,0.00,CLR,,0.00,WeatherDisplay:10.37,2013-05-19 17:11:00,
2013-05-19 12:16:00,80.3,75.7,29.83,SSE,147,12.7,12.7,86,0.00,CLR,,0.00,WeatherDisplay:10.37,2013-05-19 17:16:00,
2013-05-19 12:21:00,80.4,75.8,29.83,ESE,102,12.7,12.7,86,0.00,CLR,,0.00,WeatherDisplay:10.37,2013-05-19 17:21:00,
2013-05-19 12:26:00,80.8,75.9,29.83,SE,140,19.6,19.6,85,0.00,CLR,,0.00,WeatherDisplay:10.37,2013-05-19 17:26:00,
2013-05-19 12:31:00,81.0,76.1,29.83,SE,143,18.4,18.4,85,0.00,CLR,,0.00,WeatherDisplay:10.37,2013-05-19 17:31:00,
2013-05-19 12:36:00,80.8,75.5,29.82,SE,142,19.6,19.6,84,0.00,CLR,,0.00,WeatherDisplay:10.37,2013-05-19 17:36:00,
2013-05-19 12:41:00,80.5,75.9,29.82,SSE,151,21.9,21.9,86,0.00,CLR,,0.00,WeatherDisplay:10.37,2013-05-19 17:41:00,
2013-05-19 12:46:00,80.6,76.0,29.82,SSE,165,18.4,18.4,86,0.00,CLR,,0.00,WeatherDisplay:10.37,2013-05-19 17:46:00,
2013-05-19 12:51:00,81.1,76.2,29.82,SE,139,15.0,15.0,85,0.00,CLR,,0.00,WeatherDisplay:10.37,2013-05-19 17:51:00,
2013-05-19 12:56:00,81.5,76.6,29.82,SE,134,13.8,13.8,85,0.00,CLR,,0.00,WeatherDisplay:10.37,2013-05-19 17:56:00,
2013-05-19 13:01:00,81.0,75.7,29.82,ESE,113,16.1,16.1,84,0.00,CLR,,0.00,WeatherDisplay:10.37,2013-05-19 18:01:00,
2013-05-19 13:06:00,81.3,76.0,29.82,SE,133,13.7,13.7,84,0.00,CLR,,0.00,WeatherDisplay:10.37,2013-05-19 18:06:00,
2013-05-19 13:11:00,81.2,75.9,29.82,SSE,164,12.7,12.7,84,0.00,CLR,,0.00,WeatherDisplay:10.37,2013-05-19 18:11:00,
2013-05-19 13:16:00,81.2,75.9,29.82,SE,136,19.6,19.6,84,0.00,CLR,,0.00,WeatherDisplay:10.37,2013-05-19 18:16:00,
2013-05-19 13:21:00,81.3,76.0,29.82,ESE,113,18.4,18.4,84,0.00,CLR,,0.00,WeatherDisplay:10.37,2013-05-19 18:21:00,
2013-05-19 13:26:00,80.9,76.3,29.82,SE,128,13.7,13.7,86,0.00,CLR,,0.00,WeatherDisplay:10.37,2013-05-19 18:26:00,
2013-05-19 13:31:00,81.3,76.4,29.81,SE,143,17.3,17.3,85,0.00,CLR,,0.00,WeatherDisplay:10.37,2013-05-19 18:31:00,
2013-05-19 13:36:00,81.5,76.2,29.81,ESE,122,16.1,16.1,84,0.00,CLR,,0.00,WeatherDisplay:10.37,2013-05-19 18:36:00,
2013-05-19 13:41:00,81.0,76.1,29.80,SSE,160,16.1,16.1,85,0.00,CLR,,0.00,WeatherDisplay:10.37,2013-05-19 18:41:00,
2013-05-19 13:46:00,81.1,76.2,29.80,SE,144,18.4,18.4,85,0.00,CLR,,0.00,WeatherDisplay:10.37,2013-05-19 18:46:00,
2013-05-19 13:51:00,81.7,76.7,29.80,SE,134,15.8,15.8,85,0.00,CLR,,0.00,WeatherDisplay:10.37,2013-05-19 18:51:00,
2013-05-19 13:56:00,81.6,76.3,29.80,South,180,16.1,16.1,84,0.00,CLR,,0.00,WeatherDisplay:10.37,2013-05-19 18:56:00,
2013-05-19 14:01:00,81.2,75.9,29.80,SE,145,18.4,18.4,84,0.00,CLR,,0.00,WeatherDisplay:10.37,2013-05-19 19:01:00,
2013-05-19 14:06:00,80.8,75.9,29.80,ESE,122,20.7,20.7,85,0.00,CLR,,0.00,WeatherDisplay:10.37,2013-05-19 19:06:00,
2013-05-19 14:11:00,80.6,76.4,29.80,SSE,151,16.1,16.1,87,0.00,CLR,,0.00,WeatherDisplay:10.37,2013-05-19 19:11:00,
2013-05-19 14:16:00,80.7,76.1,29.80,SE,131,15.0,15.0,86,0.00,CLR,,0.00,WeatherDisplay:10.37,2013-05-19 19:16:00,
2013-05-19 14:21:00,80.9,76.7,29.79,SSE,155,18.4,18.4,87,0.00,CLR,,0.00,WeatherDisplay:10.37,2013-05-19 19:21:00,
2013-05-19 14:26:00,81.1,76.2,29.79,SE,129,20.7,20.7,85,0.00,CLR,,0.00,WeatherDisplay:10.37,2013-05-19 19:26:00,
2013-05-19 14:31:00,81.3,76.7,29.79,SSE,156,18.4,18.4,86,0.00,CLR,,0.00,WeatherDisplay:10.37,2013-05-19 19:31:00,
2013-05-19 14:36:00,81.8,76.8,29.79,East,96,17.3,17.3,85,0.00,CLR,,0.00,WeatherDisplay:10.37,2013-05-19 19:36:00,
2013-05-19 14:41:00,81.3,76.4,29.79,ESE,108,21.9,21.9,85,0.00,CLR,,0.00,WeatherDisplay:10.37,2013-05-19 19:41:00,
2013-05-19 14:46:00,81.8,76.5,29.79,ESE,112,19.6,19.6,84,0.00,CLR,,0.00,WeatherDisplay:10.37,2013-05-19 19:46:00,
2013-05-19 14:51:00,81.9,76.9,29.79,SE,139,11.5,11.5,85,0.00,CLR,,0.00,WeatherDisplay:10.37,2013-05-19 19:51:00,
2013-05-19 14:56:00,81.7,76.7,29.79,SSE,167,17.3,17.3,85,0.00,CLR,,0.00,WeatherDisplay:10.37,2013-05-19 19:56:00,
2013-05-19 15:01:00,81.8,76.8,29.78,South,178,13.8,13.8,85,0.00,CLR,,0.00,WeatherDisplay:10.37,2013-05-19 20:01:00,
2013-05-19 15:06:00,81.9,76.6,29.78,SE,127,16.8,16.8,84,0.00,CLR,,0.00,WeatherDisplay:10.37,2013-05-19 20:06:00,
2013-05-19 15:11:00,81.9,76.9,29.77,SSE,157,16.1,16.1,85,0.00,CLR,,0.00,WeatherDisplay:10.37,2013-05-19 20:11:00,
2013-05-19 15:16:00,81.8,76.8,29.77,SE,137,16.1,16.1,85,0.00,CLR,,0.00,WeatherDisplay:10.37,2013-05-19 20:16:00,
2013-05-19 15:21:00,81.0,76.4,29.77,ESE,116,18.4,18.4,86,0.00,CLR,,0.00,WeatherDisplay:10.37,2013-05-19 20:21:00,
2013-05-19 15:26:00,81.3,76.7,29.77,ESE,115,13.8,13.8,86,0.00,CLR,,0.00,WeatherDisplay:10.37,2013-05-19 20:26:00,
2013-05-19 15:31:00,81.4,76.5,29.77,SE,136,17.3,17.3,85,0.00,CLR,,0.00,WeatherDisplay:10.37,2013-05-19 20:31:00,
2013-05-19 15:36:00,80.9,76.3,29.77,SSE,163,16.1,16.1,86,0.00,CLR,,0.00,WeatherDisplay:10.37,2013-05-19 20:36:00,
2013-05-19 15:41:00,81.7,77.1,29.76,SSE,149,12.7,12.7,86,0.00,CLR,,0.00,WeatherDisplay:10.37,2013-05-19 20:41:00,
2013-05-19 15:46:00,82.1,77.1,29.76,SE,133,13.8,13.8,85,0.00,CLR,,0.00,WeatherDisplay:10.37,2013-05-19 20:46:00,
2013-05-19 15:51:00,82.0,76.7,29.76,SSE,162,17.3,17.3,84,0.00,CLR,,0.00,WeatherDisplay:10.37,2013-05-19 20:51:00,
2013-05-19 15:56:00,81.9,76.9,29.76,SSE,162,13.8,13.8,85,0.00,CLR,,0.00,WeatherDisplay:10.37,2013-05-19 20:56:00,
2013-05-19 16:01:00,81.4,76.5,29.75,SE,146,15.0,15.0,85,0.00,CLR,,0.00,WeatherDisplay:10.37,2013-05-19 21:01:00,
2013-05-19 16:06:00,81.3,76.7,29.75,SSE,154,17.3,17.3,86,0.00,CLR,,0.00,WeatherDisplay:10.37,2013-05-19 21:06:00,
2013-05-19 16:11:00,80.8,76.6,29.75,SSE,162,15.0,15.0,87,0.00,CLR,,0.00,WeatherDisplay:10.37,2013-05-19 21:11:00,
2013-05-19 16:16:00,81.1,76.9,29.75,SSE,160,11.5,11.5,87,0.00,CLR,,0.00,WeatherDisplay:10.37,2013-05-19 21:16:00,
2013-05-19 16:21:00,81.7,76.7,29.75,South,181,15.0,15.0,85,0.00,CLR,,0.00,WeatherDisplay:10.37,2013-05-19 21:21:00,
2013-05-19 16:26:00,81.4,76.8,29.75,SE,143,19.6,19.6,86,0.00,CLR,,0.00,WeatherDisplay:10.37,2013-05-19 21:26:00,
2013-05-19 16:31:00,81.3,77.1,29.75,ESE,120,15.8,15.8,87,0.00,CLR,,0.00,WeatherDisplay:10.37,2013-05-19 21:31:00,
2013-05-19 16:36:00,81.1,76.5,29.74,ESE,109,21.9,21.9,86,0.00,CLR,,0.00,WeatherDisplay:10.37,2013-05-19 21:36:00,
2013-05-19 16:41:00,80.9,76.7,29.74,SE,143,23.0,23.0,87,0.00,CLR,,0.00,WeatherDisplay:10.37,2013-05-19 21:41:00,
2013-05-19 16:46:00,80.6,76.4,29.74,SE,134,20.7,20.7,87,0.00,CLR,,0.00,WeatherDisplay:10.37,2013-05-19 21:46:00,
2013-05-19 16:51:00,80.5,76.6,29.74,SE,126,18.4,18.4,88,0.00,CLR,,0.00,WeatherDisplay:10.37,2013-05-19 21:51:00,
2013-05-19 16:56:00,80.1,76.2,29.75,ESE,122,18.4,18.4,88,0.00,CLR,,0.00,WeatherDisplay:10.37,2013-05-19 21:56:00,
2013-05-19 17:01:00,79.8,76.3,29.75,ESE,107,12.7,12.7,89,0.00,CLR,,0.00,WeatherDisplay:10.37,2013-05-19 22:01:00,
2013-05-19 17:06:00,79.8,75.9,29.75,SSE,148,16.1,16.1,88,0.00,CLR,,0.00,WeatherDisplay:10.37,2013-05-19 22:06:00,
2013-05-19 17:11:00,79.7,76.2,29.75,SE,129,11.5,11.5,89,0.00,CLR,,0.00,WeatherDisplay:10.37,2013-05-19 22:11:00,
2013-05-19 17:16:00,79.8,76.3,29.75,SSE,167,13.8,13.8,89,0.00,CLR,,0.00,WeatherDisplay:10.37,2013-05-19 22:16:00,
2013-05-19 17:21:00,79.7,75.8,29.75,SE,137,16.1,16.1,88,0.00,CLR,,0.00,WeatherDisplay:10.37,2013-05-19 22:21:00,
2013-05-19 17:26:00,79.2,75.7,29.75,SSE,156,18.4,18.4,89,0.00,CLR,,0.00,WeatherDisplay:10.37,2013-05-19 22:26:00,
2013-05-19 17:31:00,79.4,75.9,29.74,SE,132,18.4,18.4,89,0.00,CLR,,0.00,WeatherDisplay:10.37,2013-05-19 22:31:00,
2013-05-19 17:36:00,79.4,75.9,29.75,SE,136,11.6,11.6,89,0.00,CLR,,0.00,WeatherDisplay:10.37,2013-05-19 22:36:00,
2013-05-19 17:41:00,79.3,75.8,29.75,SE,140,18.4,18.4,89,0.00,CLR,,0.00,WeatherDisplay:10.37,2013-05-19 22:41:00,
2013-05-19 17:46:00,79.4,75.9,29.74,East,94,11.5,11.5,89,0.00,CLR,,0.00,WeatherDisplay:10.37,2013-05-19 22:46:00,
2013-05-19 17:51:00,79.3,76.1,29.74,ESE,117,11.5,11.5,90,0.00,CLR,,0.00,WeatherDisplay:10.37,2013-05-19 22:51:00,
2013-05-19 17:56:00,79.0,75.8,29.74,SE,124,18.4,18.4,90,0.00,CLR,,0.00,WeatherDisplay:10.37,2013-05-19 22:56:00,
2013-05-19 18:01:00,78.7,75.5,29.74,SSE,152,18.4,18.4,90,0.00,CLR,,0.00,WeatherDisplay:10.37,2013-05-19 23:01:00,
2013-05-19 18:06:00,78.5,75.7,29.74,ESE,120,15.0,15.0,91,0.00,CLR,,0.00,WeatherDisplay:10.37,2013-05-19 23:06:00,
2013-05-19 18:11:00,78.5,75.7,29.74,SE,131,11.5,11.5,91,0.00,CLR,,0.00,WeatherDisplay:10.37,2013-05-19 23:11:00,
2013-05-19 18:16:00,78.4,75.6,29.74,SE,141,15.0,15.0,91,0.00,CLR,,0.00,WeatherDisplay:10.37,2013-05-19 23:16:00,
2013-05-19 18:21:00,78.4,75.6,29.74,SE,134,18.4,18.4,91,0.00,CLR,,0.00,WeatherDisplay:10.37,2013-05-19 23:21:00,
2013-05-19 18:26:00,78.3,75.5,29.74,ESE,122,17.3,17.3,91,0.00,CLR,,0.00,WeatherDisplay:10.37,2013-05-19 23:26:00,
2013-05-19 18:31:00,78.2,75.7,29.75,ESE,121,18.4,18.4,92,0.00,CLR,,0.00,WeatherDisplay:10.37,2013-05-19 23:31:00,
2013-05-19 18:36:00,78.1,75.6,29.74,ESE,122,16.8,16.8,92,0.00,CLR,,0.00,WeatherDisplay:10.37,2013-05-19 23:36:00,
2013-05-19 18:41:00,78.1,75.6,29.74,SE,132,11.5,11.5,92,0.00,CLR,,0.00,WeatherDisplay:10.37,2013-05-19 23:41:00,
2013-05-19 18:46:00,78.0,75.8,29.74,SE,136,17.3,17.3,93,0.00,CLR,,0.00,WeatherDisplay:10.37,2013-05-19 23:46:00,
2013-05-19 18:51:00,77.9,75.7,29.75,South,182,18.4,18.4,93,0.00,CLR,,0.00,WeatherDisplay:10.37,2013-05-19 23:51:00,
2013-05-19 18:56:00,77.9,75.7,29.75,SSE,160,13.8,13.8,93,0.00,CLR,,0.00,WeatherDisplay:10.37,2013-05-19 23:56:00,
2013-05-19 19:01:00,77.9,75.7,29.75,SE,132,6.9,6.9,93,0.00,CLR,,0.00,WeatherDisplay:10.37,2013-05-20 00:01:00,
2013-05-19 19:06:00,77.8,75.6,29.75,East,94,12.7,12.7,93,0.00,CLR,,0.00,WeatherDisplay:10.37,2013-05-20 00:06:00,
2013-05-19 19:11:00,77.7,75.8,29.75,SE,130,10.4,10.4,94,0.00,CLR,,0.00,WeatherDisplay:10.37,2013-05-20 00:11:00,
2013-05-19 19:16:00,77.7,75.8,29.75,SE,129,12.7,12.7,94,0.00,CLR,,0.00,WeatherDisplay:10.37,2013-05-20 00:16:00,
2013-05-19 19:21:00,77.6,75.7,29.75,SE,130,9.2,9.2,94,0.00,CLR,,0.00,WeatherDisplay:10.37,2013-05-20 00:21:00,
2013-05-19 19:26:00,77.5,75.6,29.75,SSE,160,13.8,13.8,94,0.00,CLR,,0.00,WeatherDisplay:10.37,2013-05-20 00:26:00,
2013-05-19 19:31:00,77.4,75.5,29.75,East,96,18.4,18.4,94,0.00,CLR,,0.00,WeatherDisplay:10.37,2013-05-20 00:31:00,
2013-05-19 19:36:00,77.4,75.9,29.75,ESE,114,16.1,16.1,95,0.00,CLR,,0.00,WeatherDisplay:10.37,2013-05-20 00:36:00,
2013-05-19 19:41:00,77.3,75.8,29.76,SE,135,10.4,10.4,95,0.00,CLR,,0.00,WeatherDisplay:10.37,2013-05-20 00:41:00,
2013-05-19 19:46:00,77.3,75.8,29.76,SE,134,16.1,16.1,95,0.00,CLR,,0.00,WeatherDisplay:10.37,2013-05-20 00:46:00,
2013-05-19 19:51:00,77.2,75.7,29.76,ESE,118,11.5,11.5,95,0.00,CLR,,0.00,WeatherDisplay:10.37,2013-05-20 00:51:00,
2013-05-19 19:56:00,77.2,75.7,29.76,SE,129,12.7,12.7,95,0.00,CLR,,0.00,WeatherDisplay:10.37,2013-05-20 00:56:00,
2013-05-19 20:01:00,77.2,75.7,29.76,SE,124,15.0,15.0,95,0.00,CLR,,0.00,WeatherDisplay:10.37,2013-05-20 01:01:00,
2013-05-19 20:06:00,77.2,75.3,29.76,SE,135,12.7,12.7,94,0.00,CLR,,0.00,WeatherDisplay:10.37,2013-05-20 01:06:00,
2013-05-19 20:11:00,77.2,75.3,29.76,ESE,108,15.0,15.0,94,0.00,CLR,,0.00,WeatherDisplay:10.37,2013-05-20 01:11:00,
2013-05-19 20:16:00,77.2,75.3,29.77,SE,141,11.6,11.6,94,0.00,CLR,,0.00,WeatherDisplay:10.37,2013-05-20 01:16:00,
2013-05-19 20:21:00,77.2,75.3,29.77,ESE,123,11.5,11.5,94,0.00,CLR,,0.00,WeatherDisplay:10.37,2013-05-20 01:21:00,
2013-05-19 20:26:00,77.2,75.3,29.77,ESE,115,16.1,16.1,94,0.00,CLR,,0.00,WeatherDisplay:10.37,2013-05-20 01:26:00,
2013-05-19 20:31:00,77.1,75.2,29.77,ESE,114,15.0,15.0,94,0.00,CLR,,0.00,WeatherDisplay:10.37,2013-05-20 01:31:00,
2013-05-19 20:36:00,77.1,75.2,29.77,ESE,121,13.8,13.8,94,0.00,CLR,,0.00,WeatherDisplay:10.37,2013-05-20 01:36:00,
2013-05-19 20:41:00,77.2,75.3,29.77,SSE,151,13.7,13.7,94,0.00,CLR,,0.00,WeatherDisplay:10.37,2013-05-20 01:41:00,
2013-05-19 20:46:00,77.1,75.2,29.77,SE,126,11.5,11.5,94,0.00,CLR,,0.00,WeatherDisplay:10.37,2013-05-20 01:46:00,
2013-05-19 20:51:00,77.1,75.2,29.78,SE,125,8.1,8.1,94,0.00,CLR,,0.00,WeatherDisplay:10.37,2013-05-20 01:51:00,
2013-05-19 20:56:00,77.2,75.0,29.78,ESE,119,11.5,11.5,93,0.00,CLR,,0.00,WeatherDisplay:10.37,2013-05-20 01:56:00,
2013-05-19 21:01:00,77.2,75.0,29.78,ESE,106,11.5,11.5,93,0.00,CLR,,0.00,WeatherDisplay:10.37,2013-05-20 02:01:00,
2013-05-19 21:06:00,77.2,75.0,29.79,SE,138,12.7,12.7,93,0.00,CLR,,0.00,WeatherDisplay:10.37,2013-05-20 02:06:00,
2013-05-19 21:11:00,77.2,75.0,29.79,SE,136,17.3,17.3,93,0.00,CLR,,0.00,WeatherDisplay:10.37,2013-05-20 02:11:00,
2013-05-19 21:16:00,77.2,75.0,29.79,ESE,104,12.7,12.7,93,0.00,CLR,,0.00,WeatherDisplay:10.37,2013-05-20 02:16:00,
2013-05-19 21:21:00,77.2,75.0,29.79,ESE,105,15.0,15.0,93,0.00,CLR,,0.00,WeatherDisplay:10.37,2013-05-20 02:21:00,
2013-05-19 21:26:00,77.2,75.0,29.79,SE,144,13.8,13.8,93,0.00,CLR,,0.00,WeatherDisplay:10.37,2013-05-20 02:26:00,
2013-05-19 21:31:00,77.1,74.9,29.79,SE,124,9.2,9.2,93,0.00,CLR,,0.00,WeatherDisplay:10.37,2013-05-20 02:31:00,
2013-05-19 21:36:00,77.1,74.9,29.80,ESE,102,17.3,17.3,93,0.00,CLR,,0.00,WeatherDisplay:10.37,2013-05-20 02:36:00,
2013-05-19 21:41:00,77.1,74.9,29.80,ESE,106,12.7,12.7,93,0.00,CLR,,0.00,WeatherDisplay:10.37,2013-05-20 02:41:00,
2013-05-19 21:46:00,77.1,74.9,29.80,SE,133,16.1,16.1,93,0.00,CLR,,0.00,WeatherDisplay:10.37,2013-05-20 02:46:00,
2013-05-19 21:51:00,77.1,75.2,29.80,ESE,113,6.9,6.9,94,0.00,CLR,,0.00,WeatherDisplay:10.37,2013-05-20 02:51:00,
2013-05-19 21:56:00,77.0,75.1,29.80,ESE,122,15.0,15.0,94,0.00,CLR,,0.00,WeatherDisplay:10.37,2013-05-20 02:56:00,
2013-05-19 22:01:00,77.0,75.1,29.80,ESE,108,15.0,15.0,94,0.00,CLR,,0.00,WeatherDisplay:10.37,2013-05-20 03:01:00,
2013-05-19 22:06:00,77.0,75.1,29.80,SE,134,16.1,16.1,94,0.00,CLR,,0.00,WeatherDisplay:10.37,2013-05-20 03:06:00,
2013-05-19 22:11:00,76.9,74.7,29.80,ESE,119,18.4,18.4,93,0.00,CLR,,0.00,WeatherDisplay:10.37,2013-05-20 03:11:00,
2013-05-19 22:16:00,77.0,74.8,29.80,East,100,15.0,15.0,93,0.00,CLR,,0.00,WeatherDisplay:10.37,2013-05-20 03:16:00,
2013-05-19 22:21:00,77.0,74.8,29.80,SE,132,13.8,13.8,93,0.00,CLR,,0.00,WeatherDisplay:10.37,2013-05-20 03:21:00,
2013-05-19 22:26:00,77.0,74.8,29.80,ESE,120,13.8,13.8,93,0.00,CLR,,0.00,WeatherDisplay:10.37,2013-05-20 03:26:00,
2013-05-19 22:31:00,77.0,74.8,29.80,SE,133,10.4,10.4,93,0.00,CLR,,0.00,WeatherDisplay:10.37,2013-05-20 03:31:00,
2013-05-19 22:36:00,77.0,74.8,29.81,ESE,122,13.8,13.8,93,0.00,CLR,,0.00,WeatherDisplay:10.37,2013-05-20 03:36:00,
2013-05-19 22:41:00,77.0,74.8,29.81,ESE,121,15.0,15.0,93,0.00,CLR,,0.00,WeatherDisplay:10.37,2013-05-20 03:41:00,
2013-05-19 22:46:00,77.1,74.6,29.81,ESE,120,16.1,16.1,92,0.00,CLR,,0.00,WeatherDisplay:10.37,2013-05-20 03:46:00,
2013-05-19 22:51:00,77.2,75.0,29.81,SE,144,10.4,10.4,93,0.00,CLR,,0.00,WeatherDisplay:10.37,2013-05-20 03:51:00,
2013-05-19 22:56:00,77.1,74.6,29.81,ESE,117,10.4,10.4,92,0.00,CLR,,0.00,WeatherDisplay:10.37,2013-05-20 03:56:00,
2013-05-19 23:01:00,77.1,74.6,29.81,SSE,150,17.3,17.3,92,0.00,CLR,,0.00,WeatherDisplay:10.37,2013-05-20 04:01:00,
2013-05-19 23:06:00,77.0,74.8,29.81,SE,134,16.1,16.1,93,0.00,CLR,,0.00,WeatherDisplay:10.37,2013-05-20 04:06:00,
2013-05-19 23:11:00,77.0,74.5,29.81,SE,124,11.5,11.5,92,0.00,CLR,,0.00,WeatherDisplay:10.37,2013-05-20 04:11:00,
2013-05-19 23:16:00,77.0,74.8,29.81,ESE,119,12.7,12.7,93,0.00,CLR,,0.00,WeatherDisplay:10.37,2013-05-20 04:16:00,
2013-05-19 23:21:00,77.0,74.8,29.81,ESE,118,13.8,13.8,93,0.00,CLR,,0.00,WeatherDisplay:10.37,2013-05-20 04:21:00,
2013-05-19 23:26:00,76.9,74.7,29.80,SE,130,13.8,13.8,93,0.00,CLR,,0.00,WeatherDisplay:10.37,2013-05-20 04:26:00,
2013-05-19 23:31:00,76.9,74.7,29.80,ESE,123,12.7,12.7,93,0.00,CLR,,0.00,WeatherDisplay:10.37,2013-05-20 04:31:00,
2013-05-19 23:36:00,76.9,74.7,29.80,SE,135,12.7,12.7,93,0.00,CLR,,0.00,WeatherDisplay:10.37,2013-05-20 04:36:00,
2013-05-19 23:41:00,76.9,74.7,29.80,ESE,119,13.8,13.8,93,0.00,CLR,,0.00,WeatherDisplay:10.37,2013-05-20 04:41:00,
2013-05-19 23:46:00,76.8,74.6,29.80,SE,143,13.8,13.8,93,0.00,CLR,,0.00,WeatherDisplay:10.37,2013-05-20 04:46:00,
2013-05-19 23:51:00,76.8,74.6,29.80,SE,136,13.8,13.8,93,0.00,CLR,,0.00,WeatherDisplay:10.37,2013-05-20 04:51:00,
2013-05-19 23:56:00,76.6,74.7,29.80,SSE,148,16.1,16.1,94,0.00,CLR,,0.00,WeatherDisplay:10.37,2013-05-20 04:56:00,